EW0050 Weather Reports


time (UTC)temp
C
wind
direction
speed
KPH
gust
KPH
rain 1hr
cm
rain 24hr
cm
rain mn
cm
humidity
%
barometer
mb
20260506042930 12 13 0.0 0.0 0.00 4.19 0.00 91 1008.4
20260506035923 12 13 0.0 0.0 0.00 4.19 0.00 91 1008.5
20260506032932 11 14 0.0 0.0 0.00 4.19 0.00 91 1008.5
20260506025925 12 12 0.0 1.6 0.00 4.19 0.00 90 1008.4
20260506022919 12 153 0.0 0.0 0.00 4.39 0.84 90 1008.0
20260506015928 12 153 0.0 0.0 0.00 4.39 0.84 90 1007.6
20260506012943 12 80 3.2 11.3 0.20 5.51 0.84 90 1007.2
20260506005914 13 29 1.6 8.0 3.81 5.51 0.84 89 1007.8
20260506002912 15 298 9.7 20.9 3.91 5.31 0.79 88 1008.2
20260505235921 15 26 0.0 4.8 0.41 1.70 0.08 88 1008.5
20260505232912 15 95 3.2 8.0 0.10 2.39 0.03 87 1008.3
20260505225923 15 78 3.2 9.7 0.00 2.31 0.00 86 1009.0
20260505222912 15 76 3.2 9.7 0.00 3.99 0.00 86 1008.9
20260505215911 16 125 3.2 11.3 0.00 3.99 0.00 85 1009.3
20260505212921 16 73 4.8 14.5 0.00 3.99 0.00 84 1009.8
20260505205920 16 146 3.2 12.9 0.00 3.99 0.00 84 1010.3
20260505202928 16 134 0.0 6.4 0.00 3.99 0.00 83 1010.4
20260505195936 16 95 0.0 0.0 0.00 3.99 0.00 81 1010.0
20260505192914 17 40 0.0 4.8 0.00 3.99 0.00 80 1009.9
20260505185927 16 211 0.0 0.0 0.00 3.99 0.00 78 1010.0
20260505182917 17 211 3.2 6.4 0.00 3.99 0.00 78 1010.4
20260505175928 17 225 4.8 6.4 0.00 3.99 0.00 77 1010.4
20260505172918 18 237 4.8 8.0 0.00 4.09 0.00 75 1010.4
20260505165920 18 217 8.0 12.9 0.00 4.09 0.00 74 1010.5
20260505162928 20 234 6.4 12.9 0.00 4.09 0.00 70 1010.6
20260505152935 20 273 6.4 11.3 0.00 4.19 0.00 72 1010.8
20260505122927 19 256 9.7 17.7 0.00 4.19 0.00 75 1011.5
20260505115916 19 207 11.3 19.3 0.00 4.19 0.00 76 1011.6
20260505112934 18 209 6.4 12.9 0.00 4.19 0.00 78 1011.6
20260505095929 17 230 9.7 14.5 0.00 4.19 0.00 84 1011.8
20260505092945 17 236 11.3 14.5 0.00 4.19 0.00 86 1011.9
20260505085915 17 259 9.7 19.3 0.00 4.19 0.00 90 1011.6
20260505082925 16 271 6.4 14.5 0.00 4.19 0.00 92 1011.3
20260505075939 15 270 9.7 14.5 0.00 4.19 0.00 92 1011.3
20260505072929 16 80 4.8 14.5 0.00 4.29 0.00 92 1010.7